Home > Weather > Denare Beach > Past weeks

Flag for Canada Weather for the Past 2 Weeks in Denare Beach, Saskatchewan, Canada

Now
45 °F

Clear.


Feels Like: 41 °F
Forecast: 46 / 63 °F
Wind: 6 mph from North

Location: The Pas

Current Time: May 3, 2016 at 2:38:05 AM

Latest Report: May 3, 2016 at 1:00 AM


Visibility: 15 mi

Pressure: 30.00 "Hg

Humidity: 53%

Dew Point: 28 °F

Location of Denare BeachLocation

Historic Weather in Denare Beach — Graph

°F

Denare Beach Temperature Yesterday

Maximum temperature yesterday: 73 °F (at 4:00 PM)
Minimum temperature yesterday: 36 °F (at 2:00 AM)
Average temperature yesterday: 54 °F

High & Low Weather Summary for the Past Weeks

 TemperatureHumidityPressure
High73 °F (May 2, 4:00 PM)100% (May 2, 1:00 AM)30.52 "Hg (May 2, 1:00 AM)
Low21 °F (Apr 21, 6:00 AM)17% (Apr 18, 3:00 PM)29.74 "Hg (Apr 20, 2:00 AM)
Average44 °F44%30.24 "Hg
* Reported Apr 18 1:00 AM — May 3 1:00 AM, Denare Beach, Weather by CustomWeather, © 2016

Note: Actual official high and low records may vary slightly from our data, if they occured in-between our weather recording intervals... More about our weather records

Advertising

Denare Beach Weather History for the Previous 24 Hours

Scroll right to see more
 ConditionsComfort  
Time TempWeatherWind HumidityBarometerVisibility
1:00 AM
Tue, May 3
45 °FClear.6 mph53%30.00 "Hg15 mi
12:00 AM48 °FOvercast.6 mph50%29.99 "Hg15 mi
11:00 PM
Mon, May 2
52 °FClear.8 mph41%29.96 "Hg15 mi
10:00 PM52 °FOvercast.5 mph44%29.94 "Hg15 mi
9:00 PM59 °FBroken clouds.9 mph34%29.93 "Hg15 mi
8:00 PM61 °FScattered clouds.14 mph31%29.91 "Hg15 mi
7:00 PM63 °FPassing clouds.16 mph34%29.89 "Hg15 mi
6:00 PM73 °FScattered clouds.13 mph25%29.87 "Hg15 mi
5:00 PM73 °FScattered clouds.16 mph23%29.88 "Hg15 mi
4:00 PM73 °FScattered clouds.15 mph25%29.91 "Hg15 mi
3:00 PM70 °FPartly sunny.15 mph27%29.94 "Hg15 mi
2:00 PM68 °FPartly sunny.15 mph33%29.98 "Hg15 mi
1:00 PM66 °FPartly sunny.14 mph35%30.00 "Hg15 mi
12:00 PM63 °FPartly sunny.10 mph42%30.02 "Hg15 mi
11:00 AM59 °FPartly sunny.12 mph51%30.04 "Hg15 mi
10:00 AM57 °FPartly sunny.9 mph55%30.04 "Hg15 mi
9:00 AM50 °FPartly sunny.5 mph82%30.05 "Hg15 mi
8:00 AM43 °FMostly cloudy.2 mph100%30.06 "Hg15 mi
7:00 AM41 °FMostly cloudy.No wind100%30.07 "Hg15 mi
6:00 AM41 °FPartly cloudy.2 mph93%30.06 "Hg15 mi
5:00 AM39 °FPassing clouds.2 mph100%30.07 "Hg15 mi
4:00 AM36 °FClear.2 mph93%30.06 "Hg15 mi
3:00 AM36 °FClear.2 mph93%30.06 "Hg15 mi
2:00 AM36 °FClear.2 mph100%30.07 "Hg15 mi
Weather by CustomWeather, © 2016

See weather overviewHow to use our weather pages